CW5920 Weather Reports


time (UTC)temp
C
wind
direction
speed
KPH
gust
KPH
rain 1hr
cm
rain 24hr
cm
rain mn
cm
humidity
%
barometer
mb
20260904002516 30 113 17.7 27.4 0.00 0.00 0.00 62 1011.1
20260904001557 30 113 19.3 27.4 0.00 0.00 0.00 62 1011.0
20260904000516 31 113 20.9 29.0 0.00 0.00 0.00 63 1010.9
20260903235516 31 113 20.9 32.2 0.00 0.00 0.00 63 1010.9
20260903234516 32 113 17.7 27.4 0.00 0.00 0.00 62 1010.8
20260903233517 32 113 20.9 29.0 0.00 0.00 0.00 61 1010.7
20260903232516 32 113 17.7 25.7 0.00 0.00 0.00 61 1010.5
20260903231517 32 113 17.7 27.4 0.00 0.00 0.00 62 1010.5
20260903230516 32 113 16.1 25.7 0.00 0.00 0.00 62 1010.5
20260903225516 32 113 16.1 29.0 0.00 0.00 0.00 63 1010.4
20260903224516 32 90 17.7 30.6 0.00 0.00 0.00 63 1010.4
20260903223516 32 113 17.7 27.4 0.00 0.00 0.00 63 1010.5
20260903222516 32 113 14.5 19.3 0.00 0.00 0.00 63 1010.5
20260903221516 32 90 16.1 30.6 0.00 0.00 0.00 64 1010.6
20260903220516 32 113 17.7 24.1 0.00 0.00 0.00 63 1010.6
20260903215516 32 113 16.1 25.7 0.00 0.00 0.00 63 1010.6
20260903214516 32 113 14.5 20.9 0.00 0.00 0.00 64 1010.6
20260903213516 32 113 16.1 25.7 0.00 0.00 0.00 65 1010.6
20260903212516 33 90 14.5 25.7 0.00 0.00 0.00 63 1010.7
20260903211516 33 113 12.9 27.4 0.00 0.00 0.00 64 1010.8
20260903210516 32 113 14.5 25.7 0.00 0.00 0.00 65 1010.8
20260903205516 32 113 16.1 22.5 0.00 0.00 0.00 65 1010.9
20260903204556 32 90 14.5 24.1 0.00 0.00 0.00 68 1011.0
20260903203516 31 113 17.7 25.7 0.00 0.00 0.00 69 1011.2
20260903202516 31 113 16.1 25.7 0.00 0.00 0.00 69 1011.2
20260903201516 31 113 17.7 27.4 0.00 0.00 0.00 68 1011.4
20260903200516 31 113 17.7 25.7 0.00 0.00 0.00 68 1011.4
20260903195516 31 113 16.1 22.5 0.00 0.00 0.00 70 1011.5
20260903194516 31 113 16.1 24.1 0.00 0.00 0.00 70 1011.7
20260903193516 31 135 9.7 20.9 0.00 0.00 0.00 70 1011.9
20260903192516 31 135 17.7 25.7 0.00 0.00 0.00 69 1012.1
20260903191516 31 158 8.0 20.9 0.00 0.00 0.00 70 1012.2
20260903190516 31 135 17.7 25.7 0.00 0.00 0.00 70 1012.2
20260903185516 31 135 19.3 29.0 0.00 0.00 0.00 71 1012.5
20260903184516 31 135 12.9 20.9 0.00 0.00 0.00 71 1012.5
20260903183516 31 113 19.3 27.4 0.00 0.00 0.00 71 1012.7
20260903182516 31 135 19.3 32.2 0.00 0.00 0.00 70 1012.9
20260903181516 31 135 17.7 30.6 0.00 0.00 0.00 68 1012.9
20260903180516 31 135 19.3 27.4 0.00 0.00 0.00 67 1013.0
20260903175516 31 113 19.3 27.4 0.00 0.00 0.00 68 1013.1
20260903174516 31 135 19.3 30.6 0.00 0.00 0.00 69 1013.2
20260903173516 31 135 17.7 29.0 0.00 0.00 0.00 69 1013.4
20260903172516 31 113 17.7 27.4 0.00 0.00 0.00 69 1013.5
20260903171556 30 113 14.5 24.1 0.00 0.00 0.00 71 1013.6
20260903170536 30 135 14.5 25.7 0.00 0.00 0.00 71 1013.6
20260903165516 30 135 11.3 20.9 0.00 0.00 0.00 73 1013.6
20260903164516 30 135 12.9 24.1 0.00 0.00 0.00 72 1013.6
20260903163516 30 135 14.5 20.9 0.00 0.00 0.00 73 1013.6
20260903162516 30 113 12.9 22.5 0.00 0.00 0.00 74 1013.6
20260903161536 29 135 11.3 17.7 0.00 0.00 0.00 75 1013.6
20260903160516 29 113 12.9 20.9 0.00 0.00 0.00 76 1013.4
20260903155516 28 135 9.7 17.7 0.00 0.00 0.00 77 1013.5
20260903154516 28 135 8.0 16.1 0.00 0.00 0.00 78 1013.5
20260903153516 28 113 9.7 17.7 0.00 0.00 0.00 79 1013.4
20260903152516 28 158 8.0 16.1 0.00 0.00 0.00 80 1013.5
20260903151516 27 135 8.0 14.5 0.00 0.00 0.00 81 1013.4
20260903150516 27 135 9.7 16.1 0.00 0.00 0.00 82 1013.5
20260903145516 27 135 9.7 16.1 0.00 0.00 0.00 83 1013.5
20260903144516 26 135 3.2 6.4 0.00 0.00 0.00 85 1013.4
20260903143516 26 113 6.4 17.7 0.00 0.00 0.00 85 1013.3
20260903142516 26 113 9.7 16.1 0.00 0.00 0.00 86 1013.2
20260903141516 25 113 8.0 14.5 0.00 0.00 0.00 87 1013.1
20260903140536 25 113 6.4 11.3 0.00 0.00 0.00 88 1013.3
20260903135516 25 113 4.8 11.3 0.00 0.00 0.00 89 1013.2
20260903134516 25 90 3.2 4.8 0.00 0.00 0.00 89 1013.1
20260903133516 24 90 3.2 9.7 0.00 0.00 0.00 90 1013.2
20260903132536 24 90 3.2 9.7 0.00 0.00 0.00 90 1013.3
20260903131516 23 90 1.6 4.8 0.00 0.00 0.00 91 1013.2
20260903130516 23 0.0 3.2 0.00 0.00 0.00 90 1013.2
20260903125536 23 0.0 3.2 0.00 0.00 0.00 90 1013.2
20260903124516 23 0.0 1.6 0.00 0.00 0.00 90 1013.2
20260903123516 23 0.0 3.2 0.00 0.00 0.00 90 1013.2
20260903122516 23 0.0 4.8 0.00 0.00 0.00 90 1013.1
20260903121516 23 0.0 4.8 0.00 0.00 0.00 89 1013.0
20260903120536 23 90 1.6 4.8 0.00 0.00 0.00 89 1013.0
20260903115516 23 90 1.6 4.8 0.00 0.00 0.00 89 1013.0
20260903114516 23 90 3.2 6.4 0.00 0.00 0.00 89 1013.0
20260903113516 23 0.0 4.8 0.00 0.00 0.00 89 1012.9
20260903111516 23 90 3.2 9.7 0.00 0.00 0.00 88 1012.8
20260903110516 23 90 1.6 4.8 0.00 0.00 0.00 88 1012.7
20260903105516 23 90 1.6 4.8 0.00 0.00 0.00 88 1012.7
20260903104516 23 90 1.6 4.8 0.00 0.00 0.00 88 1012.7
20260903103516 23 90 1.6 6.4 0.00 0.00 0.00 88 1012.7
20260903102516 23 0.0 4.8 0.00 0.00 0.00 87 1012.7
20260903101556 23 0.0 3.2 0.00 0.00 0.00 87 1012.8
20260903100556 23 0.0 3.2 0.00 0.00 0.00 87 1012.6
20260903095536 23 113 1.6 6.4 0.00 0.00 0.00 87 1012.7
20260903094516 23 113 1.6 6.4 0.00 0.00 0.00 87 1012.6
20260903093516 23 113 1.6 4.8 0.00 0.00 0.00 87 1012.6
20260903092516 23 113 1.6 4.8 0.00 0.00 0.00 86 1012.5
20260903091516 23 0.0 0.0 0.00 0.00 0.00 85 1012.5
20260903090536 23 0.0 0.0 0.00 0.00 0.00 85 1012.6
20260903085517 24 0.0 0.0 0.00 0.00 0.00 85 1012.6
20260903084517 24 0.0 0.0 0.00 0.00 0.00 85 1012.6
20260903083517 24 0.0 0.0 0.00 0.00 0.00 84 1012.8
20260903082517 24 0.0 0.0 0.00 0.00 0.00 84 1012.8
20260903081517 24 0.0 0.0 0.00 0.00 0.00 83 1012.8
20260903080517 24 0.0 0.0 0.00 0.00 0.00 83 1012.8
20260903075517 24 0.0 0.0 0.00 0.00 0.00 83 1012.9
20260903074517 25 0.0 0.0 0.00 0.00 0.00 82 1012.8
20260903073517 25 0.0 1.6 0.00 0.00 0.00 81 1012.8
20260903072537 25 0.0 1.6 0.00 0.00 0.00 79 1012.9
20260903071537 25 0.0 0.0 0.00 0.00 0.00 79 1012.9
20260903070517 25 0.0 0.0 0.00 0.00 0.00 78 1013.0
20260903065517 25 0.0 0.0 0.00 0.00 0.00 78 1013.2
20260903064517 26 0.0 0.0 0.00 0.00 0.00 77 1013.2
20260903063517 26 0.0 0.0 0.00 0.00 0.00 77 1013.3
20260903062517 26 0.0 4.8 0.00 0.00 0.00 76 1013.4
20260903061517 26 113 1.6 6.4 0.00 0.00 0.00 76 1013.4
20260903060517 26 113 3.2 9.7 0.00 0.00 0.00 75 1013.4
20260903055517 26 90 6.4 14.5 0.00 0.00 0.00 74 1013.5
20260903054517 26 90 9.7 17.7 0.00 0.00 0.00 74 1013.5
20260903053517 27 90 8.0 20.9 0.00 0.00 0.00 74 1013.6
20260903052517 27 113 6.4 12.9 0.00 0.00 0.00 73 1013.6
20260903051517 27 113 8.0 16.1 0.00 0.00 0.00 73 1013.5
20260903050517 27 113 6.4 12.9 0.00 0.00 0.00 72 1013.4
20260903045517 27 90 6.4 12.9 0.00 0.00 0.00 72 1013.4
20260903044517 27 90 6.4 14.5 0.00 0.00 0.00 71 1013.3
20260903043517 27 90 6.4 16.1 0.00 0.00 0.00 71 1013.1
20260903042537 28 90 6.4 12.9 0.00 0.00 0.00 71 1013.3
20260903041517 28 113 6.4 14.5 0.00 0.00 0.00 70 1013.4
20260903040537 28 113 3.2 9.7 0.00 0.00 0.00 69 1013.4
20260903035537 28 113 3.2 9.7 0.00 0.00 0.00 69 1013.4
20260903034517 29 113 3.2 6.4 0.00 0.00 0.00 68 1013.2
20260903033517 29 113 3.2 9.7 0.00 0.00 0.00 67 1013.3
20260903032517 29 113 8.0 17.7 0.00 0.00 0.00 66 1013.3
20260903031517 30 113 11.3 17.7 0.00 0.00 0.00 65 1013.2
20260903030517 30 90 9.7 16.1 0.00 0.00 0.00 64 1013.1
20260903025637 30 113 6.4 19.3 0.00 0.00 0.00 63 1013.0
20260903024517 30 113 4.8 12.9 0.00 0.00 0.00 63 1012.8
20260903023517 30 113 4.8 11.3 0.00 0.00 0.00 62 1012.5
20260903022517 30 113 4.8 12.9 0.00 0.00 0.00 61 1012.5
20260903021517 31 113 6.4 14.5 0.00 0.00 0.00 60 1012.3
20260903020517 31 113 9.7 14.5 0.00 0.00 0.00 60 1012.2
20260903015517 31 113 6.4 12.9 0.00 0.00 0.00 58 1012.0
20260903014517 31 113 11.3 19.3 0.00 0.00 0.00 57 1011.9
20260903013517 32 113 12.9 19.3 0.00 0.00 0.00 56 1011.8
20260903012517 32 113 14.5 20.9 0.00 0.00 0.00 54 1011.7
20260903011517 32 90 12.9 22.5 0.00 0.00 0.00 50 1011.4
20260903010537 33 90 14.5 20.9 0.00 0.00 0.00 48 1011.3
20260903005517 33 90 12.9 22.5 0.00 0.00 0.00 48 1011.3
20260903004517 33 90 16.1 25.7 0.00 0.00 0.00 47 1011.2
20260903003517 34 90 14.5 27.4 0.00 0.00 0.00 46 1011.2